Temperature
14 14 15 15 15 15 16 16 16 16 16 17 17 17 17 17 17 17 17 17 17 17 17 17 17 17 17 17 17 16 16 16 16 16 16 16 16 16 16 16 15 15 15
14 14 15 15 15 15 15 16 16 16 16 16 16 16 17 17 17 17 17 17 17 17 17 17 17 17 17 17 16 16 16 16 16 16 16 16 16 16 16 16 15 15 15
14 14 14 15 15 15 15 15 16 16 16 16 16 16 16 16 16 16 16 16 16 17 17 16 16 16 16 16 16 16 16 16 16 16 16 15 15 16 16 16 15 15 15
13 13 14 14 15 15 15 15 15 16 16 16 16 16 16 16 16 16 16 16 16 16 16 16 16 16 16 16 16 16 16 16 16 16 15 15 15 15 16 15 15 15 15
13 13 14 14 14 15 15 15 15 15 16 16 16 16 16 16 16 16 16 16 16 16 16 16 16 16 16 16 16 16 16 16 16 15 15 15 15 15 15 15 15 15 15
13 13 13 14 14 14 15 15 15 15 15 15 15 16 16 16 16 16 16 16 16 16 16 16 16 16 16 16 16 16 16 16 15 15 15 15 15 15 15 15 15 15 15
12 12 13 13 14 14 14 14 14 15 15 15 15 15 15 15 15 15 15 15 15 15 15 15 15 15 15 15 15 15 15 15 15 15 15 15 15 15 15 15 15 15 15
12 12 13 13 13 13 14 14 14 14 14 14 14 15 15 15 15 15 15 15 15 15 15 15 15 15 15 15 15 15 15 15 15 15 15 15 15 15 15 15 14 14 14
12 12 12 13 13 13 13 13 13 13 14 14 14 14 14 14 14 14 14 14 14 14 14 15 14 14 14 15 15 15 15 15 14 14 14 14 14 14 14 14 14 14 14
12 12 12 12 12 13 13 13 13 13 13 13 13 13 14 14 14 14 14 14 14 14 14 14 14 14 14 14 14 14 14 14 14 14 14 14 14 14 14 14 14 14 14
12 12 12 12 12 12 12 12 12 12 13 13 13 13 13 13 13 13 13 13 13 13 13 13 14 14 14 14 14 14 14 14 13 13 13 14 14 14 14 14 14 14 13
11 12 12 12 12 12 12 12 12 12 12 12 12 12 13 13 13 13 13 13 13 13 13 13 13 13 13 13 13 13 13 13 13 13 13 13 13 13 13 13 13 13 13
11 11 11 11 12 12 12 12 12 12 12 12 12 12 12 12 12 12 12 12 12 12 12 12 12 12 12 12 12 12 12 12 12 12 12 13 13 13 13 13 13 13 13
11 11 11 11 11 11 11 11 11 11 11 11 11 11 11 12 12 11 11 12 12 11 11 11 11 11 12 12 12 12 12 12 12 12 12 12 13 13 12 12 12 12 12
11 11 11 11 11 11 11 11 11 11 11 11 11 11 11 11 11 11 11 11 11 11 11 11 11 11 11 11 11 11 11 11 11 11 11 12 12 12 12 12 12 12 12
11 11 11 11 11 11 11 11 11 11 11 11 11 11 11 10 10 10 10 10 10 10 10 10 10 10 10 10 10 10 10 10 10 10 10 11 11 12 12 12 12 12 12
10 11 11 11 10 10 10 10 10 10 10 10 10 10 10 10 10 10 10 10 10 10 10 10 10 10 10 10 10 10 10 10 10 10 10 10 10 10 11 11 11 11 11
10 10 10 10 10 10 10 10 10 10 10 10 10 10 10 9 9 9 9 9 9 9 9 9 9 9 9 9 9 9 9 9 9 9 9 9 9 10 10 10 11 11 11
10 10 10 10 10 10 10 10 10 10 9 9 9 9 9 9 9 9 8 8 8 8 8 8 8 8 8 8 8 8 8 9 9 9 9 9 9 9 9 9 10 10 10
10 10 10 10 10 10 10 9 9 9 9 9 9 9 9 8 8 8 8 8 8 8 8 8 7 7 7 7 7 7 8 8 8 8 8 8 8 8 8 9 9 9 10
10 10 9 9 9 9 9 9 9 9 9 8 8 8 8 8 8 8 8 7 7 7 7 7 7 7 7 7 6 6 7 7 7 7 7 8 8 8 8 8 8 8 9
9 9 9 9 9 9 9 9 9 8 8 8 8 8 8 8 8 7 7 7 7 7 6 6 6 6 6 5 5 5 5 6 7 7 7 7 7 7 7 7 7 8 8
9 9 9 9 9 9 9 8 8 8 8 8 8 8 7 7 7 7 7 7 6 6 6 5 5 5 5 5 4 4 4 5 5 5 6 6 6 6 7 7 7 7 7
9 9 9 9 9 9 8 8 8 7 7 7 7 7 7 7 7 7 7 6 6 5 5 5 5 4 4 4 4 4 4 4 3 4 5 5 5 6 6 6 6 6 6
9 9 9 9 8 8 8 8 7 7 7 7 7 7 6 6 6 6 6 6 5 5 5 4 4 4 4 3 3 3 3 3 3 3 4 4 5 5 5 5 5 6 6
9 9 9 8 8 8 8 7 7 7 7 6 6 6 6 6 6 6 5 5 5 5 4 4 4 4 4 3 3 3 3 2 3 3 3 3 4 4 4 5 5 5 5
Wind_Speed
5 5 6 7 8 9 10 10 11 12 11 11 10 9 9 9 8 8 7 7 6 5 5 5 4 3 3 3 4 4 3 3 3 3 3 3 3 4 4 4 4 5 6
6 6 8 8 9 9 10 11 11 12 11 11 11 10 9 9 9 8 8 8 7 6 5 4 3 3 3 2 2 2 3 3 3 3 3 4 4 4 4 4 3 3 6
7 7 8 9 9 9 10 10 11 11 11 11 11 10 10 10 9 8 8 8 8 7 6 4 4 3 2 2 1 1 2 3 3 3 4 4 4 5 4 5 4 5 6
7 7 8 9 9 10 10 10 10 11 11 11 11 10 10 10 9 9 8 7 7 7 7 6 5 4 3 2 0 1 1 3 3 4 4 3 3 4 5 5 6 5 6
8 8 9 9 9 10 10 10 10 10 10 10 10 10 9 9 9 9 9 8 7 6 6 6 5 5 4 3 2 1 1 2 3 6 4 3 3 4 5 6 6 5 6
8 8 10 9 10 10 10 10 10 10 10 9 9 9 9 9 9 9 9 8 8 7 6 6 6 5 4 4 3 2 2 2 5 6 5 5 4 4 6 6 7 7 7
8 8 9 9 9 9 9 9 10 10 10 10 10 9 9 8 8 8 8 8 8 7 6 6 5 5 4 3 3 3 2 3 5 5 5 5 4 4 7 8 7 8 8
8 8 9 10 9 9 10 10 10 10 10 10 10 10 9 9 9 8 8 8 8 7 6 6 5 5 5 4 3 3 3 4 6 6 6 6 5 6 8 9 9 9 10
7 7 7 7 8 9 9 9 9 9 10 10 10 10 10 10 9 9 9 8 8 7 7 6 6 6 6 5 4 4 4 5 6 5 6 6 5 7 9 10 10 11 11
6 6 6 6 6 6 7 8 8 9 9 9 9 9 9 8 8 8 8 9 8 8 7 7 6 6 6 5 5 4 5 6 7 6 6 6 6 8 10 10 11 12 12
6 5 4 5 5 5 5 6 6 7 7 6 7 7 6 5 6 6 8 8 8 8 7 8 6 6 6 5 5 5 4 5 6 6 6 6 7 10 11 12 12 12 12
7 5 4 4 4 4 4 4 3 4 4 4 5 5 5 5 5 5 5 6 6 6 6 7 7 6 5 4 4 4 4 6 6 6 6 6 9 11 12 13 13 13 13
7 6 4 4 3 3 3 2 2 2 3 3 4 5 4 4 4 4 4 4 5 5 5 6 6 5 5 5 5 5 5 6 5 6 7 7 10 12 13 13 13 14 14
7 6 4 4 3 2 2 2 2 2 2 2 3 4 3 3 3 4 4 5 5 5 5 5 5 6 6 6 6 6 6 5 6 6 7 7 10 12 14 14 14 14 15
8 7 5 4 3 2 2 1 1 1 1 2 3 3 3 3 3 3 3 4 5 5 5 5 6 6 7 6 6 7 7 7 8 8 7 8 10 12 14 15 15 15 15
8 7 6 5 3 2 2 1 0 0 1 1 2 3 3 3 3 3 3 4 5 5 6 6 7 6 6 6 7 7 8 8 8 9 9 9 10 12 13 15 16 16 17
8 7 6 5 4 3 2 1 1 0 0 1 1 2 3 3 3 3 3 4 5 6 6 6 7 6 6 6 8 8 8 8 9 9 9 9 9 11 13 14 16 17 17
8 7 6 4 4 4 3 2 1 1 1 1 1 2 2 3 4 3 3 4 5 6 5 5 6 6 6 7 7 7 8 8 10 10 9 9 9 10 11 13 15 16 17
8 8 7 6 5 4 3 2 2 1 1 1 2 2 2 3 4 4 4 4 5 5 5 5 6 6 7 8 8 8 8 8 9 9 10 10 10 10 11 12 14 16 17
8 7 7 6 5 4 3 2 2 2 2 2 2 2 3 4 4 4 4 5 5 5 5 5 6 7 7 8 9 9 9 9 9 9 10 9 9 11 12 12 11 12 15
8 8 7 6 5 4 3 3 2 2 2 2 3 3 4 4 5 5 4 5 5 5 6 7 7 8 7 7 8 8 8 9 9 8 8 9 10 11 12 12 11 11 11
9 8 8 7 6 6 4 3 3 3 3 3 3 4 5 5 5 4 5 5 5 5 6 6 7 6 6 6 6 8 7 7 6 8 8 9 10 9 10 12 12 12 12
10 9 8 8 7 6 5 3 2 2 2 3 3 4 4 5 5 5 6 6 6 6 6 7 7 7 7 7 6 5 6 6 9 7 9 9 9 9 10 10 12 13 13
10 8 8 8 7 6 5 5 5 4 4 4 4 4 5 5 6 6 6 7 6 6 7 7 7 7 8 7 7 6 8 9 8 8 8 9 11 12 12 10 11 13 14
9 8 7 7 7 6 6 6 6 5 4 3 4 5 5 5 6 6 6 7 7 6 7 8 8 8 7 8 8 7 9 9 11 10 12 12 11 11 11 11 11 12 13
8 7 7 7 7 6 6 6 6 6 5 5 5 5 5 5 5 6 6 7 7 7 8 8 9 10 9 10 9 8 9 8 9 10 12 14 13 12 12 11 11 12 12
Wind_Direction
121 95 69 66 64 66 65 62 62 62 64 67 69 70 71 69 69 67 67 71 73 72 72 76 83 98 115 123 126 127 127 126 140 150 163 169 168 163 165 170 182 166 143
120 104 82 70 69 70 68 67 64 62 61 62 63 65 67 66 65 65 63 62 61 59 59 62 67 67 90 118 135 147 152 153 142 145 178 184 179 175 177 184 200 157 151
117 106 95 74 71 70 68 68 66 64 62 60 60 61 62 62 61 60 59 57 54 51 47 48 55 59 64 87 116 164 177 174 171 174 213 209 182 180 192 190 184 171 173
114 105 90 80 76 71 69 67 67 65 63 61 59 59 58 57 57 54 53 53 51 47 43 42 44 42 42 38 40 176 197 200 199 213 225 222 204 175 200 204 199 189 182
113 103 91 83 80 75 71 69 67 65 64 62 59 57 56 54 52 50 48 47 44 43 39 34 32 32 30 24 15 324 257 230 223 229 238 237 230 190 212 210 204 201 199
115 105 93 85 83 78 75 71 67 64 61 59 58 55 52 50 50 49 47 44 39 37 35 29 24 18 16 13 7 342 308 262 241 239 241 238 233 212 226 220 214 212 212
115 103 99 89 86 81 77 73 68 64 61 57 55 53 51 50 48 46 43 40 36 33 27 20 16 13 5 355 354 343 323 297 260 255 251 245 244 237 235 229 224 223 223
114 105 101 92 86 82 78 74 69 64 62 58 56 54 52 49 46 42 38 35 30 27 24 14 3 360 357 345 333 327 325 297 268 263 257 255 252 242 242 240 236 233 230
116 109 102 99 93 87 82 76 71 66 62 59 57 55 52 50 47 43 39 34 29 24 19 12 0 350 351 342 325 314 300 288 270 265 264 262 256 246 247 246 242 240 237
123 115 108 101 96 93 88 80 74 69 64 60 57 53 51 51 48 42 38 32 26 20 13 4 354 348 340 334 325 307 292 270 263 265 267 269 263 255 252 248 246 244 241
134 127 118 108 97 92 88 86 81 75 67 60 56 50 41 41 39 38 34 26 20 14 7 359 345 335 324 310 308 305 276 271 273 270 271 282 273 264 260 253 248 247 243
154 143 132 121 110 98 90 87 77 66 60 48 42 36 32 30 27 21 25 19 10 1 354 351 339 320 308 306 297 277 277 279 278 273 275 282 276 271 267 264 254 251 247
161 153 146 135 126 112 101 85 69 58 52 44 38 32 27 23 16 8 2 359 353 346 343 338 332 327 317 315 308 294 288 286 278 275 277 274 273 274 271 268 263 257 253
170 167 163 155 145 129 111 92 74 55 40 33 27 21 18 18 10 5 0 352 346 343 339 333 327 323 313 306 302 299 290 284 283 280 279 275 272 272 274 273 266 264 258
180 177 173 171 164 147 129 103 75 45 29 25 16 12 7 4 356 355 349 345 341 337 333 328 322 319 313 305 297 292 289 283 279 275 276 271 269 271 272 271 270 266 264
186 183 178 178 175 167 167 162 131 51 21 8 8 360 353 351 349 340 333 336 335 331 329 322 317 311 307 302 294 289 285 283 279 277 274 271 264 267 271 270 268 267 266
189 186 185 184 181 185 187 192 190 212 306 345 352 345 342 339 335 332 324 324 326 322 321 318 315 311 306 301 293 289 286 283 280 279 276 274 271 264 263 266 267 266 266
189 188 187 188 189 195 199 205 212 229 260 293 308 317 325 328 324 324 320 317 322 319 319 316 313 310 310 307 299 292 286 283 280 278 275 272 273 273 268 265 266 266 267
192 190 189 192 196 199 203 209 219 232 246 267 280 295 309 313 314 316 313 314 315 315 313 312 314 311 308 307 301 293 286 280 279 277 275 274 273 272 274 271 266 264 266
192 190 191 190 195 196 200 207 215 232 248 261 269 280 292 298 302 308 306 309 311 305 306 306 308 309 304 302 300 294 285 279 275 271 274 274 273 273 272 273 270 264 261
192 192 191 192 193 192 196 206 223 244 257 264 269 277 284 293 297 299 299 302 304 301 302 304 304 305 309 309 302 299 288 273 269 269 274 276 276 275 273 271 268 269 267
196 195 195 196 197 199 205 214 225 239 254 262 264 270 278 285 289 291 294 295 296 297 296 298 298 297 300 308 303 307 303 292 273 274 272 275 275 278 275 271 268 268 267
200 199 201 200 200 203 203 203 206 231 254 261 269 276 277 283 285 287 288 291 291 290 291 293 292 288 292 294 291 288 295 294 310 282 276 275 279 277 275 275 271 270 266
201 200 204 202 202 201 200 207 214 232 251 263 271 275 282 282 285 285 285 286 287 286 286 287 285 280 280 283 281 266 269 284 288 295 286 280 282 278 275 275 275 273 269
198 198 202 202 204 204 208 215 226 239 254 266 273 275 283 285 284 284 284 284 283 281 281 281 280 275 271 271 273 275 274 274 271 277 288 290 285 279 277 276 275 273 272
193 195 199 201 206 207 213 221 230 242 255 265 272 278 284 286 285 285 286 283 281 279 278 278 276 273 267 266 266 265 268 271 274 276 281 287 289 286 282 277 274 271 269
Height
1518 1518 1519 1520 1520 1521 1521 1521 1522 1522 1522 1522 1522 1523 1523 1523 1523 1523 1524 1524 1524 1524 1524 1524 1523 1523 1523 1523 1522 1522 1522 1522 1522 1522 1521 1521 1521 1520 1520 1520 1520 1521 1520
1517 1518 1519 1520 1520 1521 1521 1521 1522 1522 1522 1522 1522 1523 1523 1523 1523 1523 1523 1523 1524 1524 1524 1523 1523 1523 1523 1522 1522 1522 1522 1522 1522 1521 1521 1521 1521 1520 1520 1520 1520 1520 1520
1516 1518 1519 1519 1520 1521 1521 1521 1522 1522 1522 1522 1522 1522 1522 1522 1523 1523 1523 1523 1523 1523 1523 1523 1522 1522 1522 1522 1522 1521 1521 1521 1521 1521 1521 1521 1520 1520 1520 1519 1519 1519 1519
1516 1518 1518 1519 1520 1520 1521 1521 1521 1521 1521 1522 1522 1522 1522 1522 1522 1522 1522 1522 1522 1522 1522 1522 1521 1521 1521 1521 1521 1520 1520 1520 1520 1520 1521 1521 1520 1519 1519 1519 1519 1519 1519
1516 1517 1518 1519 1519 1520 1520 1520 1521 1521 1521 1521 1521 1521 1521 1521 1521 1521 1521 1521 1521 1521 1520 1520 1520 1520 1519 1519 1519 1519 1519 1519 1519 1519 1519 1519 1519 1518 1518 1518 1517 1517 1517
1516 1517 1518 1519 1519 1520 1520 1520 1520 1520 1520 1520 1520 1520 1520 1520 1519 1519 1519 1519 1519 1519 1519 1518 1518 1518 1518 1517 1517 1517 1517 1517 1517 1517 1517 1517 1517 1516 1516 1516 1516 1516 1516
1516 1517 1518 1518 1519 1519 1519 1519 1519 1519 1519 1519 1519 1518 1518 1518 1518 1518 1518 1517 1517 1517 1516 1516 1516 1516 1516 1515 1515 1515 1515 1515 1515 1515 1515 1515 1515 1514 1514 1514 1514 1514 1514
1516 1517 1517 1518 1518 1519 1519 1519 1518 1518 1518 1518 1517 1517 1517 1517 1516 1516 1516 1515 1515 1514 1514 1514 1513 1513 1513 1513 1512 1512 1512 1512 1513 1512 1512 1512 1512 1512 1512 1512 1512 1512 1512
1515 1516 1517 1517 1518 1518 1518 1518 1518 1517 1517 1517 1516 1516 1516 1515 1515 1514 1514 1513 1513 1512 1512 1511 1511 1511 1510 1510 1510 1510 1510 1509 1510 1510 1509 1509 1509 1509 1509 1509 1509 1509 1509
1515 1516 1516 1517 1517 1517 1517 1517 1517 1517 1516 1516 1515 1515 1514 1514 1513 1513 1512 1511 1511 1510 1510 1509 1508 1508 1507 1507 1507 1507 1506 1506 1506 1506 1506 1505 1505 1505 1505 1505 1505 1506 1506
1514 1515 1515 1516 1516 1517 1517 1516 1516 1516 1515 1515 1514 1514 1513 1512 1512 1511 1510 1509 1509 1508 1507 1506 1506 1505 1504 1504 1504 1503 1503 1503 1503 1502 1502 1501 1501 1501 1501 1501 1502 1502 1502
1513 1514 1514 1515 1515 1515 1515 1515 1515 1515 1514 1514 1513 1512 1512 1511 1510 1509 1508 1507 1506 1506 1505 1504 1503 1502 1502 1501 1500 1500 1499 1499 1498 1498 1497 1497 1497 1497 1497 1497 1497 1498 1498
1512 1513 1513 1514 1514 1514 1514 1514 1514 1513 1513 1512 1512 1511 1510 1509 1508 1507 1506 1505 1504 1503 1502 1501 1500 1499 1498 1497 1497 1496 1495 1495 1494 1494 1493 1493 1493 1493 1493 1493 1493 1493 1493
1510 1511 1512 1512 1513 1513 1513 1513 1512 1512 1512 1511 1510 1509 1508 1507 1506 1505 1504 1503 1502 1500 1499 1498 1497 1496 1495 1494 1493 1492 1491 1491 1490 1489 1488 1488 1488 1488 1488 1488 1488 1488 1488
1508 1509 1510 1511 1511 1511 1511 1511 1511 1510 1510 1509 1508 1508 1507 1506 1504 1503 1502 1501 1499 1498 1497 1495 1494 1493 1492 1491 1490 1488 1487 1487 1486 1485 1483 1483 1483 1482 1482 1482 1482 1482 1482
1506 1507 1508 1509 1509 1509 1510 1509 1509 1509 1508 1507 1507 1506 1505 1504 1502 1501 1500 1498 1497 1495 1494 1492 1491 1489 1488 1487 1485 1484 1483 1482 1481 1480 1479 1478 1477 1476 1476 1476 1476 1476 1476
1504 1505 1506 1506 1507 1507 1508 1508 1507 1507 1506 1506 1505 1504 1503 1502 1500 1499 1497 1496 1494 1492 1491 1489 1488 1486 1485 1483 1482 1480 1479 1477 1476 1475 1474 1473 1472 1471 1470 1470 1470 1470 1470
1501 1502 1503 1504 1505 1505 1505 1505 1505 1505 1504 1503 1503 1502 1500 1499 1498 1496 1495 1493 1491 1490 1488 1486 1485 1483 1481 1479 1478 1476 1475 1473 1471 1470 1469 1467 1466 1465 1464 1463 1463 1463 1463
1498 1499 1501 1502 1502 1503 1503 1503 1503 1502 1502 1501 1500 1499 1498 1497 1495 1494 1492 1490 1488 1487 1485 1483 1481 1480 1477 1475 1473 1471 1469 1468 1466 1465 1464 1462 1461 1459 1458 1457 1457 1456 1456
1495 1496 1497 1499 1499 1500 1500 1500 1500 1500 1499 1498 1497 1496 1495 1494 1493 1491 1489 1487 1485 1483 1482 1480 1478 1476 1474 1472 1469 1466 1464 1462 1460 1459 1458 1457 1455 1454 1453 1451 1450 1450 1449
1491 1493 1494 1495 1496 1497 1497 1497 1497 1496 1496 1495 1495 1494 1492 1491 1489 1488 1486 1484 1482 1480 1478 1477 1475 1472 1470 1468 1465 1462 1459 1457 1455 1453 1452 1451 1450 1448 1447 1446 1445 1444 1443
1487 1489 1490 1492 1492 1493 1493 1494 1494 1493 1493 1492 1491 1490 1489 1488 1486 1485 1483 1481 1479 1477 1475 1473 1471 1469 1467 1465 1463 1460 1456 1453 1450 1448 1447 1445 1444 1443 1441 1440 1439 1438 1437
1483 1485 1486 1488 1489 1490 1490 1490 1490 1490 1489 1489 1488 1487 1486 1484 1483 1481 1479 1477 1475 1473 1471 1469 1468 1466 1463 1462 1461 1460 1456 1450 1446 1443 1441 1440 1438 1437 1435 1434 1433 1432 1430
1478 1481 1483 1484 1485 1486 1486 1487 1486 1486 1485 1485 1484 1483 1482 1480 1479 1477 1475 1473 1471 1469 1467 1465 1464 1462 1460 1458 1457 1455 1454 1451 1447 1439 1436 1435 1434 1431 1430 1428 1426 1425 1424
1475 1476 1478 1480 1481 1482 1483 1483 1483 1483 1482 1481 1480 1479 1478 1476 1474 1472 1470 1468 1466 1465 1463 1461 1459 1457 1455 1453 1452 1450 1448 1446 1443 1439 1432 1429 1428 1426 1424 1422 1420 1419 1417
1471 1472 1474 1476 1477 1478 1479 1479 1479 1479 1478 1477 1476 1475 1473 1472 1470 1468 1466 1464 1462 1460 1458 1456 1454 1452 1450 1448 1446 1444 1443 1441 1439 1435 1430 1425 1421 1419 1418 1416 1414 1412 1410